Regional Weather Roundup
Issued by NWS

Home | Current Version | Previous Version | Text Only | Print | Product List | Glossary Off
Versions: 1 2 3 4 5 6 7 8 9 10 11 12 13 14 15 16 17 18 19 20 21 22 23 24 25 26 27 28 29 30 31 32 33 34 35 36 37 38 39 40 41 42 43 44 45 46 47 48 49 50

000
ASUS43 KMKX 260200
RWRWI

WISCONSIN REGIONAL WEATHER ROUNDUP
NATIONAL WEATHER SERVICE MILWAUKEE/SULLIVAN WI
900 PM CDT SAT APR 25 2015

NOTE: "FAIR" INDICATES FEW OR NO CLOUDS BELOW 12,000 FEET WITH NO
SIGNIFICANT WEATHER AND/OR OBSTRUCTIONS TO VISIBILITY.

WIZ001-002-006>008-014>016-023>028-260300-
NORTHWEST WISCONSIN

CITY           SKY/WX    TMP DP  RH WIND       PRES   REMARKS
SUPERIOR ARPT  CLEAR     36  26  66 NE9       30.04R WCI  29
ASHLAND        CLEAR     31  23  72 N5        30.04R WCI  26
HAYWARD        CLEAR     39  20  46 NE10      29.98R WCI  32
SIREN          CLEAR     47  24  41 NE8       29.96R
CUMBERLAND     CLEAR     46  23  39 NE12      29.93R
RICE LAKE      CLEAR     47  26  43 N15       29.94R
CHETEK         CLEAR     51  28  41 N8        29.92R
LADYSMITH      CLEAR     46  25  42 N13       29.94R
EAU CLAIRE     NOT AVBL
MENOMONIE      CLEAR     54  25  32 NE8       29.90R
NEW RICHMOND   CLEAR     53  28  38 NE12G17   29.91R
OSCEOLA        CLEAR     53  26  35 N12       29.94R
$$

WIZ003>005-009-010-017-018-260300-
NORTH CENTRAL WISCONSIN

CITY           SKY/WX    TMP DP  RH WIND       PRES   REMARKS
MANITOWISH WTR CLEAR     41  23  48 N6        29.95R
ARBOR VITAE    CLEAR     45  19  35 NE8       29.94R
WOODRUFF       CLEAR     45  19  35 NE8       29.94R
RHINELANDER    CLEAR     45  16  31 NE5       29.94R
EAGLE RIVER    CLEAR     42  18  37 NE9       29.94R
LAND O LAKES   CLEAR     40  19  42 N9        29.96R WCI  34
PHILLIPS       CLEAR     45  23  42 N10       29.93R
TOMAHAWK       CLEAR     46  14  27 CALM      29.91R
MEDFORD        CLEAR     48  20  33 CALM      29.90R
MERRILL        CLEAR     47  15  27 E3        29.90R
$$

WIZ029-030-035-036-043>047-260300-
CENTRAL WISCONSIN

CITY           SKY/WX    TMP DP  RH WIND       PRES   REMARKS
WAUSAU         CLEAR     45  19  35 E6        29.91R
MOSINEE        NOT AVBL
MARSHFIELD     CLEAR     45  21  38 S7        29.91R
STEVENS POINT  CLEAR     41  18  40 E6        29.93R
WAUPACA        CLEAR     41  13  31 CALM      29.93R
WAUTOMA        NOT AVBL
WISC RAPIDS    CLEAR     44  15  31 SE3       29.93R
CAMP DOUGLAS   NOT AVBL
$$

WIZ011>013-019>022-031-037>040-048>050-260300-
NORTHEAST WISCONSIN

CITY           SKY/WX    TMP DP  RH WIND       PRES   REMARKS
ANTIGO         CLEAR     40  24  51 E6        29.92R
SHAWANO        CLEAR     45  20  36 NE5       29.94R
OCONTO         CLEAR     42  24  50 CALM      29.93R
STURGEON BAY   CLEAR     41  18  38 N9        29.95R
GREEN BAY      CLEAR     43  24  47 NE10      29.93R
MANITOWOC      NOT AVBL
APPLETON       PTCLDY    41   9  26 NE6       29.92R
CLINTONVILLE   CLEAR     43  16  33 N3        29.93R
OSHKOSH        PTCLDY    43  20  39 NE9       29.91R
$$

WIZ032>034-041-042-053>061-260300-
SOUTHWEST WISCONSIN

CITY           SKY/WX    TMP DP  RH WIND       PRES   REMARKS
LA CROSSE      CLEAR     51  17  26 E3        29.89R
SPARTA         CLEAR     43  14  31 CALM      29.90R
VIROQUA        PTCLDY    43  21  40 E6        29.88R
BOSCOBEL       PTCLDY    48  26  42 NE3       29.89R
PRAIRIE DU CHI MOCLDY    48  29  48 CALM      29.87S
PLATTEVILLE    CLOUDY    46  35  65 NE5       29.87R
$$

WIZ056-057-062-063-064-067-068-260300-
SOUTH CENTRAL WISCONSIN

CITY           SKY/WX    TMP DP  RH WIND       PRES   REMARKS
REEDSBURG      CLOUDY    47  17  30 NE8       29.89R
BARABOO/DELLS  CLOUDY    45  15  29 NE7       29.89R
LONE ROCK      NOT AVBL
MINERAL POINT  PTCLDY    45  32  61 CALM      29.87R
MADISON        MOCLDY    45  24  43 NE12      29.88R
MIDDLETON      MOCLDY    45  29  53 NE8       29.88R
WATERTOWN      CLOUDY    45  19  36 NE7       29.87S
MONROE         CLOUDY    43  36  75 NE7       29.86R
JANESVILLE     CLOUDY    46  30  53 NE10      29.85S
$$

WIZ051-052-058>065-066-070>072-260300-
SOUTHEAST WISCONSIN

CITY           SKY/WX    TMP DP  RH WIND       PRES   REMARKS
MILWAUKEE      CLOUDY    41  26  55 N15G25    29.88R
WAUKESHA       CLOUDY    41  18  38 NE9       29.89R
MILWAUKEE/TIMM CLOUDY    43  16  33 N10       29.89R
RACINE         CLOUDY    40  29  64 N16G24    29.88S WCI  31
BURLINGTON     CLOUDY    41  19  41 NE15      29.87R
KENOSHA        CLOUDY    40  27  59 N10       29.87R WCI  33
FOND DU LAC    PTCLDY    44  19  36 NE10      29.91R
SHEBOYGAN      PTCLDY    41  21  44 N8        29.90R
WEST BEND      CLOUDY    41  14  33 N8        29.89R
JUNEAU         CLOUDY    44  18  35 N5        29.90R
$$

LSZ147-162-260300-
LAKE SUPERIOR

STATION/POSITION TIME  TEMP    WIND        PRES    WAVE
                       AIR SEA DIR/SP/G            HT/PER
                 (UTC) (F)     (DEG/KT/KT) (MB)    (FT/S)
W MID LAKE BUOY  0050   36 35   80/  8/  8 1018.1R   2/ 4
DEVILS ISLAND    0100   36      50/ 10/ 10 1017.8R
PORT WING        0140   37      40/ 14/ 15 1017.3R
SAXON HARBOR     0140   38      50/  7/ 11 1016.3R
$$

LMZ867-665-643>646-260300-
LAKE MICHIGAN

STATION/POSITION TIME  TEMP    WIND        PRES    WAVE
                       AIR SEA DIR/SP/G            HT/PER
                 (UTC) (F)     (DEG/KT/KT) (MB)    (FT/S)
CHAMBERS ISLAND  0100   40      20/  9/ 10 1013.5F
NORTHPORT PIER   0100   44      10/  8/ 10 1013.5R
SISTER BAY       0032   46      40/  4/  9   N/A
KEWAUNEE LAKESHO 0100   42      30/ 13/ 18 1011.9R
SHEBOYGAN LAKESH 0100   41      10/ 20/ 22 1012.5R
PORT WASHINGTON  0100   43      20/  7/ 13 1012.5
MILWAUKEE LAKESH 0100   40     360/ 17/ 24   N/A
KENOSHA   LAKESH 0100   41     360/ 19/ 21 1010.8R
$$

TC  - TEMPERATURE IN CELSIUS
VSB - VISIBILITY IN STATUTE MILES
WCI - WIND CHILL INDEX
HX  - HEAT INDEX




USA.gov is the U.S. government's official web portal to all federal, state and local government web resources and services.